This demonstration page uses our WeatherBlox Daily Observations layout. Learn more.

Left ArrowRight Arrow

36.19886, -115.1175

Hourly Observations for December 15, 2015

Temp ( °F °C ) Dew Point ( °F °C ) Humidity (%) Winds ( mph kmh ) Pressure ( in mb ) Visibility ( mi km ) Precip ( " mm )
12:53 am 00:53 Clear 39 3.9 16 -8.9 39 39 N 16 26 29.95 1014 10 16 0.00 0.00
1:53 am 01:53 Clear 40 4.4 15 -9.4 36 36 N 18 30 29.94 1014 10 16 0.00 0.00
2:53 am 02:53 Clear 39 3.9 15 -9.4 38 38 NNW 22 35 29.96 1014 10 16 0.00 0.00
3:53 am 03:53 Clear 39 3.9 14 -10 36 36 N 13 20 29.96 1015 10 16 0.00 0.00
4:53 am 04:53 Clear 38 3.3 14 -10 37 37 NNW 15 24 29.98 1015 10 16 0.00 0.00
5:53 am 05:53 Clear 38 3.3 13 -10.6 36 36 NW 17 28 29.99 1016 10 16 0.00 0.00
6:53 am 06:53 Sunny 39 3.9 13 -10.6 34 34 NNW 25 41 30.01 1016 10 16 0.00 0.00
7:53 am 07:53 Sunny 40 4.4 13 -10.6 33 33 NNW 16 26 30.03 1017 10 16 0.00 0.00
8:53 am 08:53 Sunny 44 6.7 13 -10.6 28 28 NNW 21 33 30.04 1017 10 16 0.00 0.00
9:53 am 09:53 Sunny 46 7.8 13 -10.6 26 26 NNW 18 30 30.06 1018 10 16 0.00 0.00
10:53 am 10:53 Sunny 48 8.9 13 -10.6 24 24 NNW 23 37 30.06 1018 10 16 0.00 0.00
11:53 am 11:53 Sunny 49 9.4 13 -10.6 23 23 NNW 23 37 30.05 1018 10 16 0.00 0.00
12:53 pm 12:53 Mostly Sunny 50 10 13 -10.6 22 22 NNW 18 30 30.04 1017 10 16 0.00 0.00
1:53 pm 13:53 Sunny 50 10 14 -10 24 24 NNW 20 31 30.04 1017 10 16 0.00 0.00
2:53 pm 14:53 Sunny 50 10 14 -10 24 24 NNW 16 26 30.05 1018 10 16 0.00 0.00
3:53 pm 15:53 Mostly Sunny 49 9.4 14 -10 25 25 NNW 16 26 30.07 1018 10 16 0.00 0.00
4:53 pm 16:53 Cloudy 47 8.3 14 -10 26 26 NNW 13 20 30.09 1019 10 16 0.00 0.00
5:53 pm 17:53 Cloudy 46 7.8 14 -10 27 27 N 9 15 30.11 1020 10 16 0.00 0.00
6:53 pm 18:53 Clear 45 7.2 14 -10 29 29 NNW 13 20 30.12 1020 10 16 0.00 0.00
7:53 pm 19:53 Clear 44 6.7 14 -10 30 30 NNW 16 26 30.15 1021 10 16 0.00 0.00
8:53 pm 20:53 Clear 44 6.7 14 -10 30 30 NNW 10 17 30.16 1021 10 16 0.00 0.00
9:53 pm 21:53 Clear 43 6.1 14 -10 31 31 NNW 13 20 30.17 1022 10 16 0.00 0.00
10:53 pm 22:53 Clear 41 5 14 -10 33 33 NNW 9 15 30.17 1022 10 16 0.00 0.00
11:53 pm 23:53 Clear 40 4.4 14 -10 35 35 NNW 12 19 30.17 1022 10 16 0.00 0.00

Powered by AerisWeather